| time (UTC) | temp F | wind direction | speed MPH | gust MPH | rain 1hr in | rain 24hr in | rain mn in | humidity % | barometer mb |
| 20260506184702 | 55 | 70 | 3.0 | 10.0 | 0.00 | 0.00 | 0.00 | 42 | 1021.7 |
| 20260506184140 | 56 | 29 | 3.0 | 10.0 | 0.00 | 0.00 | 0.00 | 41 | 1021.7 |
| 20260506183657 | 56 | 343 | 3.0 | 6.0 | 0.00 | 0.00 | 0.00 | 42 | 1021.8 |
| 20260506183154 | 56 | 56 | 2.0 | 8.0 | 0.00 | 0.00 | 0.00 | 42 | 1021.7 |
| 20260506182656 | 55 | 34 | 4.0 | 8.0 | 0.00 | 0.00 | 0.00 | 41 | 1021.8 |
| 20260506182214 | 55 | 84 | 2.0 | 6.0 | 0.00 | 0.00 | 0.00 | 42 | 1021.7 |
| 20260506181651 | 56 | 64 | 4.0 | 6.0 | 0.00 | 0.00 | 0.00 | 40 | 1021.7 |
| 20260506181148 | 56 | 48 | 4.0 | 7.0 | 0.00 | 0.00 | 0.00 | 41 | 1021.7 |
| 20260506180647 | 55 | 46 | 4.0 | 9.0 | 0.00 | 0.00 | 0.00 | 42 | 1021.6 |
| 20260506180145 | 55 | 43 | 3.0 | 9.0 | 0.00 | 0.00 | 0.00 | 42 | 1021.7 |
| 20260506175704 | 55 | 79 | 3.0 | 8.0 | 0.00 | 0.00 | 0.00 | 41 | 1021.7 |
| 20260506175142 | 55 | 47 | 3.0 | 8.0 | 0.00 | 0.00 | 0.00 | 43 | 1021.6 |
| 20260506174640 | 55 | 68 | 4.0 | 8.0 | 0.00 | 0.00 | 0.00 | 42 | 1021.4 |
| 20260506174157 | 54 | 355 | 4.0 | 8.0 | 0.00 | 0.00 | 0.00 | 44 | 1021.5 |
| 20260506173655 | 54 | 51 | 3.0 | 7.0 | 0.00 | 0.00 | 0.00 | 44 | 1021.5 |
| 20260506173213 | 55 | 50 | 2.0 | 6.0 | 0.00 | 0.00 | 0.00 | 43 | 1021.4 |
| 20260506172710 | 54 | 83 | 3.0 | 8.0 | 0.00 | 0.00 | 0.00 | 44 | 1021.3 |
| 20260506172146 | 54 | 42 | 3.0 | 8.0 | 0.00 | 0.00 | 0.00 | 44 | 1021.3 |
| 20260506171644 | 54 | 37 | 4.0 | 7.0 | 0.00 | 0.00 | 0.00 | 45 | 1021.3 |
| 20260506170646 | 53 | 51 | 5.0 | 8.0 | 0.00 | 0.00 | 0.00 | 46 | 1021.2 |
| 20260506170204 | 53 | 56 | 3.0 | 8.0 | 0.00 | 0.00 | 0.00 | 44 | 1021.1 |
| 20260506165643 | 53 | 34 | 3.0 | 8.0 | 0.00 | 0.00 | 0.00 | 44 | 1021.1 |
| 20260506165201 | 53 | 61 | 4.0 | 7.0 | 0.00 | 0.00 | 0.00 | 43 | 1021.0 |
| 20260506164642 | 54 | 37 | 4.0 | 6.0 | 0.00 | 0.00 | 0.00 | 43 | 1020.9 |
| 20260506164140 | 54 | 50 | 2.0 | 6.0 | 0.00 | 0.00 | 0.00 | 44 | 1020.9 |
| 20260506163658 | 53 | 71 | 2.0 | 6.0 | 0.00 | 0.00 | 0.00 | 42 | 1020.9 |
| 20260506163155 | 53 | 30 | 2.0 | 6.0 | 0.00 | 0.00 | 0.00 | 42 | 1020.8 |
| 20260506162653 | 53 | 44 | 3.0 | 7.0 | 0.00 | 0.00 | 0.00 | 43 | 1020.7 |
| 20260506162150 | 53 | 50 | 3.0 | 7.0 | 0.00 | 0.00 | 0.00 | 43 | 1020.7 |
| 20260506161709 | 52 | 48 | 3.0 | 7.0 | 0.00 | 0.00 | 0.00 | 41 | 1020.7 |
| 20260506161146 | 53 | 42 | 3.0 | 6.0 | 0.00 | 0.00 | 0.00 | 42 | 1020.7 |
| 20260506160644 | 53 | 34 | 3.0 | 5.0 | 0.00 | 0.00 | 0.00 | 41 | 1020.7 |
| 20260506160141 | 52 | 34 | 3.0 | 4.0 | 0.00 | 0.00 | 0.00 | 41 | 1020.7 |
| 20260506155659 | 53 | 64 | 1.0 | 3.0 | 0.00 | 0.01 | 0.00 | 40 | 1020.6 |
| 20260506155156 | 53 | 90 | 1.0 | 6.0 | 0.00 | 0.01 | 0.00 | 41 | 1020.6 |
| 20260506154654 | 52 | 79 | 2.0 | 6.0 | 0.00 | 0.01 | 0.00 | 40 | 1020.5 |
| 20260506154154 | 52 | 48 | 2.0 | 5.0 | 0.00 | 0.01 | 0.00 | 40 | 1020.4 |
| 20260506153651 | 52 | 34 | 1.0 | 3.0 | 0.00 | 0.01 | 0.00 | 40 | 1020.5 |
| 20260506153148 | 52 | 48 | 2.0 | 3.0 | 0.00 | 0.01 | 0.00 | 39 | 1020.5 |
| 20260506152650 | 53 | 69 | 1.0 | 2.0 | 0.00 | 0.01 | 0.00 | 39 | 1020.4 |
| 20260506152147 | 52 | 74 | 1.0 | 2.0 | 0.00 | 0.01 | 0.00 | 39 | 1020.4 |
| 20260506151645 | 52 | 60 | 1.0 | 3.0 | 0.00 | 0.01 | 0.00 | 38 | 1020.4 |
| 20260506151204 | 51 | 60 | 1.0 | 3.0 | 0.00 | 0.01 | 0.00 | 38 | 1020.4 |
| 20260506150640 | 51 | 79 | 1.0 | 3.0 | 0.00 | 0.01 | 0.00 | 39 | 1020.4 |
| 20260506150219 | 51 | 47 | 2.0 | 3.0 | 0.00 | 0.01 | 0.00 | 38 | 1020.2 |
| 20260506145656 | 52 | 60 | 1.0 | 3.0 | 0.00 | 0.01 | 0.00 | 39 | 1020.2 |
| 20260506145154 | 52 | 60 | 1.0 | 2.0 | 0.00 | 0.01 | 0.00 | 38 | 1020.2 |
| 20260506144652 | 51 | 57 | 0.0 | 2.0 | 0.00 | 0.01 | 0.00 | 40 | 1020.3 |
| 20260506144210 | 51 | 99 | 0.0 | 1.0 | 0.00 | 0.01 | 0.00 | 39 | 1020.1 |
| 20260506143648 | 50 | 70 | 0.0 | 1.0 | 0.00 | 0.01 | 0.00 | 40 | 1020.1 |
| 20260506143146 | 50 | 87 | 0.0 | 1.0 | 0.00 | 0.01 | 0.00 | 42 | 1020.0 |
| 20260506142643 | 49 | 89 | 0.0 | 1.0 | 0.00 | 0.01 | 0.00 | 44 | 1019.9 |
| 20260506142141 | 48 | 75 | 0.0 | 1.0 | 0.00 | 0.01 | 0.00 | 44 | 1019.9 |
| 20260506141657 | 48 | 73 | 0.0 | 1.0 | 0.00 | 0.01 | 0.00 | 44 | 1019.8 |
| 20260506141155 | 47 | 221 | 0.0 | 1.0 | 0.00 | 0.01 | 0.00 | 46 | 1019.7 |
| 20260506140714 | 47 | 221 | 0.0 | 0.0 | 0.00 | 0.01 | 0.00 | 47 | 1019.7 |
| 20260506140151 | 45 | 221 | 0.0 | 0.0 | 0.00 | 0.01 | 0.00 | 50 | 1019.6 |
| 20260506135649 | 44 | 221 | 0.0 | 0.0 | 0.00 | 0.01 | 0.00 | 52 | 1019.5 |
| 20260506135151 | 43 | 221 | 0.0 | 0.0 | 0.00 | 0.01 | 0.00 | 53 | 1019.4 |
| 20260506134649 | 43 | 221 | 0.0 | 1.0 | 0.00 | 0.01 | 0.00 | 53 | 1019.3 |
| 20260506134145 | 42 | 221 | 0.0 | 1.0 | 0.00 | 0.01 | 0.00 | 53 | 1019.2 |
| 20260506133658 | 42 | 221 | 0.0 | 0.0 | 0.00 | 0.01 | 0.00 | 53 | 1019.2 |
| 20260506133156 | 41 | 221 | 0.0 | 0.0 | 0.00 | 0.01 | 0.00 | 53 | 1019.1 |
| 20260506132653 | 41 | 221 | 0.0 | 1.0 | 0.00 | 0.01 | 0.00 | 53 | 1019.1 |
| 20260506132150 | 40 | 221 | 0.0 | 1.0 | 0.00 | 0.01 | 0.00 | 53 | 1019.1 |
| 20260506131648 | 40 | 204 | 0.0 | 1.0 | 0.00 | 0.01 | 0.00 | 54 | 1019.0 |
| 20260506131146 | 39 | 204 | 0.0 | 1.0 | 0.00 | 0.01 | 0.00 | 54 | 1018.9 |
| 20260506130644 | 39 | 229 | 0.0 | 0.0 | 0.00 | 0.01 | 0.00 | 55 | 1018.9 |
| 20260506130140 | 39 | 229 | 0.0 | 0.0 | 0.00 | 0.01 | 0.00 | 55 | 1018.7 |
| 20260506125658 | 38 | 229 | 0.0 | 0.0 | 0.00 | 0.01 | 0.00 | 56 | 1018.7 |
| 20260506125155 | 38 | 229 | 0.0 | 1.0 | 0.00 | 0.01 | 0.00 | 56 | 1018.7 |
| 20260506124713 | 38 | 229 | 0.0 | 0.0 | 0.00 | 0.01 | 0.00 | 55 | 1018.6 |
| 20260506124151 | 38 | 229 | 0.0 | 1.0 | 0.00 | 0.01 | 0.00 | 55 | 1018.5 |
| 20260506123648 | 38 | 229 | 0.0 | 1.0 | 0.00 | 0.01 | 0.00 | 55 | 1018.5 |
| 20260506123148 | 38 | 229 | 0.0 | 1.0 | 0.00 | 0.01 | 0.00 | 55 | 1018.4 |
| 20260506122646 | 38 | 229 | 0.0 | 1.0 | 0.00 | 0.01 | 0.00 | 55 | 1018.4 |
| 20260506122145 | 38 | 224 | 0.0 | 1.0 | 0.00 | 0.01 | 0.00 | 55 | 1018.3 |
| 20260506121642 | 37 | 224 | 0.0 | 0.0 | 0.00 | 0.01 | 0.00 | 55 | 1018.3 |
| 20260506121159 | 38 | 224 | 0.0 | 0.0 | 0.00 | 0.01 | 0.00 | 55 | 1018.3 |
| 20260506120656 | 38 | 224 | 0.0 | 0.0 | 0.00 | 0.01 | 0.00 | 54 | 1018.2 |
| 20260506120155 | 38 | 224 | 0.0 | 0.0 | 0.00 | 0.01 | 0.00 | 54 | 1018.2 |
| 20260506115654 | 37 | 224 | 0.0 | 0.0 | 0.00 | 0.01 | 0.00 | 54 | 1018.1 |
| 20260506115152 | 37 | 224 | 0.0 | 0.0 | 0.00 | 0.01 | 0.00 | 55 | 1018.2 |
| 20260506114650 | 36 | 224 | 0.0 | 1.0 | 0.00 | 0.01 | 0.00 | 57 | 1018.1 |
| 20260506114209 | 36 | 224 | 0.0 | 1.0 | 0.00 | 0.01 | 0.00 | 58 | 1018.1 |
| 20260506113645 | 35 | 224 | 0.0 | 1.0 | 0.00 | 0.01 | 0.00 | 58 | 1018.1 |
| 20260506113203 | 35 | 224 | 0.0 | 1.0 | 0.00 | 0.01 | 0.00 | 59 | 1018.0 |
| 20260506112701 | 36 | 222 | 0.0 | 0.0 | 0.00 | 0.01 | 0.00 | 57 | 1018.1 |
| 20260506112159 | 37 | 222 | 0.0 | 0.0 | 0.00 | 0.01 | 0.00 | 55 | 1018.0 |
| 20260506111656 | 37 | 222 | 0.0 | 0.0 | 0.00 | 0.01 | 0.00 | 54 | 1017.9 |
| 20260506111155 | 37 | 223 | 0.0 | 0.0 | 0.00 | 0.01 | 0.00 | 54 | 1017.8 |
| 20260506110656 | 37 | 223 | 0.0 | 0.0 | 0.00 | 0.01 | 0.00 | 54 | 1017.8 |
| 20260506110154 | 37 | 222 | 0.0 | 0.0 | 0.00 | 0.01 | 0.00 | 54 | 1017.7 |
| 20260506105654 | 37 | 223 | 0.0 | 1.0 | 0.00 | 0.01 | 0.00 | 55 | 1017.6 |
| 20260506105152 | 36 | 223 | 0.0 | 1.0 | 0.00 | 0.01 | 0.00 | 55 | 1017.6 |
| 20260506104650 | 36 | 222 | 0.0 | 0.0 | 0.00 | 0.01 | 0.00 | 56 | 1017.6 |
| 20260506104209 | 36 | 223 | 0.0 | 0.0 | 0.00 | 0.01 | 0.00 | 56 | 1017.6 |
| 20260506103646 | 36 | 222 | 0.0 | 1.0 | 0.00 | 0.01 | 0.00 | 56 | 1017.6 |
| 20260506103203 | 37 | 223 | 0.0 | 1.0 | 0.00 | 0.01 | 0.00 | 55 | 1017.6 |
| 20260506102700 | 37 | 223 | 0.0 | 0.0 | 0.00 | 0.01 | 0.00 | 54 | 1017.7 |
| 20260506102157 | 37 | 222 | 0.0 | 0.0 | 0.00 | 0.01 | 0.00 | 54 | 1017.6 |
| 20260506101715 | 37 | 222 | 0.0 | 0.0 | 0.00 | 0.01 | 0.00 | 54 | 1017.4 |
| 20260506101152 | 37 | 223 | 0.0 | 0.0 | 0.00 | 0.01 | 0.00 | 54 | 1017.5 |
| 20260506100651 | 36 | 223 | 0.0 | 0.0 | 0.00 | 0.01 | 0.00 | 55 | 1017.4 |
| 20260506100149 | 36 | 223 | 0.0 | 1.0 | 0.00 | 0.01 | 0.00 | 56 | 1017.4 |
| 20260506095648 | 35 | 222 | 0.0 | 1.0 | 0.00 | 0.01 | 0.00 | 58 | 1017.4 |
| 20260506095146 | 35 | 223 | 0.0 | 1.0 | 0.00 | 0.01 | 0.00 | 65 | 1017.4 |
| 20260506094643 | 36 | 222 | 0.0 | 0.0 | 0.00 | 0.01 | 0.00 | 61 | 1017.4 |
| 20260506094145 | 37 | 195 | 0.0 | 0.0 | 0.00 | 0.01 | 0.00 | 60 | 1017.4 |
| 20260506093643 | 37 | 195 | 0.0 | 0.0 | 0.00 | 0.01 | 0.00 | 53 | 1017.4 |
| 20260506093201 | 37 | 195 | 0.0 | 0.0 | 0.00 | 0.01 | 0.00 | 52 | 1017.3 |
| 20260506092720 | 37 | 195 | 0.0 | 0.0 | 0.00 | 0.01 | 0.00 | 53 | 1017.3 |
| 20260506092155 | 37 | 195 | 0.0 | 0.0 | 0.00 | 0.01 | 0.00 | 52 | 1017.3 |
| 20260506091653 | 37 | 195 | 0.0 | 0.0 | 0.00 | 0.01 | 0.00 | 52 | 1017.4 |
| 20260506091151 | 37 | 195 | 0.0 | 0.0 | 0.00 | 0.01 | 0.00 | 53 | 1017.4 |
| 20260506090649 | 37 | 195 | 0.0 | 0.0 | 0.00 | 0.01 | 0.00 | 54 | 1017.4 |
| 20260506090147 | 37 | 195 | 0.0 | 0.0 | 0.00 | 0.01 | 0.00 | 57 | 1017.4 |
| 20260506085707 | 37 | 195 | 0.0 | 1.0 | 0.00 | 0.01 | 0.00 | 59 | 1017.5 |
| 20260506085143 | 36 | 195 | 0.0 | 1.0 | 0.00 | 0.01 | 0.00 | 61 | 1017.4 |
| 20260506084716 | 36 | 214 | 0.0 | 1.0 | 0.00 | 0.01 | 0.00 | 63 | 1017.5 |
| 20260506084152 | 36 | 214 | 0.0 | 1.0 | 0.00 | 0.01 | 0.00 | 64 | 1017.4 |
| 20260506083710 | 37 | 214 | 0.0 | 1.0 | 0.00 | 0.01 | 0.00 | 65 | 1017.4 |
| 20260506083207 | 36 | 214 | 0.0 | 1.0 | 0.00 | 0.01 | 0.00 | 66 | 1017.5 |
| 20260506082201 | 36 | 214 | 0.0 | 0.0 | 0.00 | 0.01 | 0.00 | 69 | 1017.5 |
| 20260506081659 | 36 | 214 | 0.0 | 0.0 | 0.00 | 0.01 | 0.00 | 70 | 1017.6 |
| 20260506081150 | 35 | 214 | 0.0 | 0.0 | 0.00 | 0.01 | 0.00 | 72 | 1017.6 |
| 20260506080648 | 35 | 214 | 0.0 | 1.0 | 0.00 | 0.01 | 0.00 | 74 | 1017.5 |
| 20260506080145 | 35 | 214 | 0.0 | 1.0 | 0.00 | 0.01 | 0.00 | 74 | 1017.5 |
| 20260506073158 | 36 | 214 | 0.0 | 0.0 | 0.00 | 0.01 | 0.00 | 71 | 1017.5 |
| 20260506072655 | 36 | 214 | 0.0 | 1.0 | 0.00 | 0.01 | 0.00 | 71 | 1017.4 |
| 20260506072152 | 36 | 214 | 0.0 | 1.0 | 0.00 | 0.01 | 0.00 | 71 | 1017.5 |
| 20260506071648 | 35 | 214 | 0.0 | 1.0 | 0.00 | 0.01 | 0.00 | 73 | 1017.4 |
| 20260506071143 | 34 | 214 | 0.0 | 1.0 | 0.00 | 0.01 | 0.00 | 75 | 1017.4 |
| 20260506070701 | 33 | 214 | 0.0 | 0.0 | 0.00 | 0.01 | 0.00 | 77 | 1017.4 |
| 20260506070220 | 33 | 214 | 0.0 | 0.0 | 0.00 | 0.01 | 0.00 | 78 | 1017.4 |
| 20260506062201 | 33 | 214 | 0.0 | 1.0 | 0.00 | 0.01 | 0.01 | 84 | 1016.8 |
| 20260506061658 | 33 | 214 | 0.0 | 1.0 | 0.00 | 0.01 | 0.01 | 85 | 1016.8 |
| 20260506061155 | 33 | 214 | 0.0 | 1.0 | 0.00 | 0.01 | 0.01 | 86 | 1016.8 |
| 20260506060657 | 33 | 214 | 0.0 | 0.0 | 0.00 | 0.01 | 0.01 | 85 | 1016.8 |
| 20260506060154 | 33 | 214 | 0.0 | 0.0 | 0.00 | 0.01 | 0.01 | 84 | 1016.7 |
| 20260506051148 | 33 | 214 | 0.0 | 1.0 | 0.00 | 0.01 | 0.01 | 88 | 1016.4 |
| 20260506050700 | 33 | 214 | 0.0 | 1.0 | 0.00 | 0.01 | 0.01 | 88 | 1016.4 |
| 20260506050157 | 33 | 214 | 0.0 | 0.0 | 0.00 | 0.01 | 0.01 | 88 | 1016.4 |
| 20260506044710 | 34 | 214 | 0.0 | 0.0 | 0.00 | 0.01 | 0.01 | 86 | 1016.2 |
| 20260506044146 | 34 | 214 | 0.0 | 0.0 | 0.00 | 0.01 | 0.01 | 86 | 1016.1 |
| 20260506043648 | 34 | 214 | 0.0 | 0.0 | 0.00 | 0.01 | 0.01 | 85 | 1016.0 |
| 20260506043145 | 34 | 214 | 0.0 | 0.0 | 0.00 | 0.01 | 0.01 | 86 | 1015.9 |
| 20260506042704 | 35 | 214 | 0.0 | 0.0 | 0.00 | 0.01 | 0.01 | 86 | 1015.9 |
| 20260506042202 | 35 | 214 | 0.0 | 0.0 | 0.00 | 0.01 | 0.01 | 85 | 1015.9 |
| 20260506041700 | 35 | 214 | 0.0 | 1.0 | 0.00 | 0.01 | 0.01 | 85 | 1015.8 |
| 20260506041157 | 35 | 214 | 0.0 | 1.0 | 0.00 | 0.01 | 0.01 | 85 | 1015.7 |
| 20260506040654 | 35 | 215 | 0.0 | 1.0 | 0.00 | 0.01 | 0.01 | 85 | 1015.9 |
| 20260506040152 | 35 | 215 | 0.0 | 0.0 | 0.00 | 0.01 | 0.01 | 85 | 1015.8 |
| 20260506035651 | 35 | 215 | 0.0 | 0.0 | 0.00 | 0.01 | 0.01 | 84 | 1015.8 |
| 20260506035209 | 36 | 215 | 0.0 | 1.0 | 0.00 | 0.01 | 0.01 | 84 | 1015.6 |
| 20260506034706 | 36 | 215 | 0.0 | 1.0 | 0.00 | 0.01 | 0.01 | 84 | 1015.5 |
| 20260506034204 | 36 | 215 | 0.0 | 1.0 | 0.00 | 0.01 | 0.01 | 84 | 1015.4 |
| 20260506033701 | 36 | 215 | 0.0 | 1.0 | 0.00 | 0.01 | 0.01 | 83 | 1015.3 |
| 20260506033159 | 36 | 215 | 0.0 | 0.0 | 0.00 | 0.01 | 0.01 | 83 | 1015.4 |
| 20260506032658 | 36 | 215 | 0.0 | 1.0 | 0.00 | 0.01 | 0.01 | 82 | 1015.3 |
| 20260506032155 | 36 | 215 | 0.0 | 1.0 | 0.00 | 0.01 | 0.01 | 81 | 1015.2 |
| 20260506031713 | 36 | 198 | 0.0 | 0.0 | 0.00 | 0.01 | 0.01 | 81 | 1015.2 |
| 20260506031150 | 36 | 198 | 0.0 | 0.0 | 0.00 | 0.01 | 0.01 | 79 | 1015.2 |
| 20260506030652 | 36 | 198 | 0.0 | 0.0 | 0.00 | 0.01 | 0.01 | 79 | 1015.0 |
| 20260506030149 | 37 | 198 | 0.0 | 0.0 | 0.00 | 0.01 | 0.01 | 78 | 1015.0 |
| 20260506025650 | 37 | 198 | 0.0 | 0.0 | 0.00 | 0.01 | 0.01 | 78 | 1014.8 |
| 20260506025206 | 37 | 198 | 0.0 | 0.0 | 0.00 | 0.01 | 0.01 | 77 | 1014.8 |
| 20260506024704 | 37 | 198 | 0.0 | 0.0 | 0.00 | 0.01 | 0.01 | 77 | 1014.8 |
| 20260506024202 | 37 | 198 | 0.0 | 0.0 | 0.00 | 0.01 | 0.01 | 77 | 1014.7 |
| 20260506023700 | 38 | 198 | 0.0 | 0.0 | 0.00 | 0.01 | 0.01 | 76 | 1014.7 |
| 20260506023158 | 38 | 198 | 0.0 | 0.0 | 0.00 | 0.01 | 0.01 | 76 | 1014.6 |
| 20260506022656 | 38 | 198 | 0.0 | 0.0 | 0.00 | 0.01 | 0.01 | 75 | 1014.6 |
| 20260506022211 | 38 | 198 | 0.0 | 0.0 | 0.00 | 0.01 | 0.01 | 74 | 1014.5 |
| 20260506021648 | 39 | 198 | 0.0 | 0.0 | 0.00 | 0.01 | 0.01 | 74 | 1014.4 |
| 20260506021145 | 39 | 198 | 0.0 | 0.0 | 0.00 | 0.01 | 0.01 | 74 | 1014.3 |
| 20260506020703 | 39 | 198 | 0.0 | 0.0 | 0.00 | 0.01 | 0.01 | 73 | 1014.4 |
| 20260506020222 | 39 | 198 | 0.0 | 0.0 | 0.00 | 0.01 | 0.01 | 73 | 1014.2 |
| 20260506015659 | 40 | 198 | 0.0 | 0.0 | 0.00 | 0.01 | 0.01 | 73 | 1014.2 |
| 20260506015157 | 40 | 198 | 0.0 | 0.0 | 0.00 | 0.01 | 0.01 | 72 | 1014.1 |
| 20260506014715 | 40 | 198 | 0.0 | 0.0 | 0.00 | 0.01 | 0.01 | 72 | 1014.1 |
| 20260506014152 | 40 | 138 | 0.0 | 1.0 | 0.00 | 0.01 | 0.01 | 71 | 1014.1 |
| 20260506013650 | 41 | 135 | 0.0 | 1.0 | 0.00 | 0.01 | 0.01 | 70 | 1013.9 |
| 20260506013152 | 41 | 259 | 0.0 | 2.0 | 0.00 | 0.01 | 0.01 | 70 | 1014.0 |
| 20260506012650 | 41 | 293 | 0.0 | 2.0 | 0.00 | 0.01 | 0.01 | 71 | 1014.0 |
| 20260506012147 | 41 | 264 | 0.0 | 1.0 | 0.00 | 0.01 | 0.01 | 70 | 1014.0 |
| 20260506011705 | 41 | 269 | 0.0 | 1.0 | 0.00 | 0.01 | 0.01 | 70 | 1013.9 |
| 20260506011202 | 41 | 244 | 0.0 | 1.0 | 0.00 | 0.01 | 0.01 | 70 | 1014.0 |
| 20260506010720 | 41 | 249 | 0.0 | 1.0 | 0.00 | 0.01 | 0.01 | 70 | 1013.8 |
| 20260506010157 | 42 | 249 | 0.0 | 2.0 | 0.00 | 0.01 | 0.01 | 68 | 1013.8 |
| 20260506005657 | 42 | 253 | 0.0 | 2.0 | 0.00 | 0.01 | 0.01 | 66 | 1013.8 |
| 20260506005155 | 43 | 228 | 0.0 | 1.0 | 0.00 | 0.01 | 0.01 | 65 | 1013.9 |
| 20260506004652 | 43 | 246 | 0.0 | 1.0 | 0.00 | 0.01 | 0.01 | 65 | 1013.7 |
| 20260506004151 | 44 | 175 | 0.0 | 2.0 | 0.00 | 0.01 | 0.01 | 64 | 1013.8 |
| 20260506003649 | 44 | 212 | 0.0 | 3.0 | 0.00 | 0.01 | 0.01 | 62 | 1013.7 |
| 20260506003206 | 45 | 250 | 1.0 | 5.0 | 0.00 | 0.01 | 0.01 | 61 | 1013.8 |
| 20260506002703 | 45 | 253 | 1.0 | 5.0 | 0.00 | 0.01 | 0.01 | 62 | 1013.6 |
| 20260506002201 | 45 | 178 | 1.0 | 5.0 | 0.00 | 0.01 | 0.01 | 61 | 1013.5 |
| 20260506001659 | 45 | 255 | 0.0 | 3.0 | 0.00 | 0.01 | 0.01 | 60 | 1013.7 |
| 20260506001201 | 45 | 229 | 1.0 | 3.0 | 0.00 | 0.01 | 0.01 | 61 | 1013.5 |
| 20260506000659 | 44 | 283 | 0.0 | 3.0 | 0.00 | 0.01 | 0.01 | 63 | 1013.5 |
| 20260506000156 | 44 | 266 | 1.0 | 3.0 | 0.00 | 0.01 | 0.01 | 61 | 1013.7 |
| 20260505235654 | 45 | 257 | 1.0 | 3.0 | 0.00 | 0.01 | 0.01 | 61 | 1013.7 |
| 20260505235151 | 46 | 257 | 1.0 | 4.0 | 0.00 | 0.01 | 0.01 | 59 | 1013.6 |
| 20260505234649 | 46 | 266 | 1.0 | 4.0 | 0.00 | 0.01 | 0.01 | 61 | 1013.5 |
| 20260505234147 | 45 | 255 | 1.0 | 6.0 | 0.00 | 0.01 | 0.01 | 59 | 1013.5 |
| 20260505233705 | 45 | 236 | 2.0 | 5.0 | 0.00 | 0.01 | 0.01 | 60 | 1013.4 |
| 20260505233203 | 46 | 193 | 1.0 | 5.0 | 0.00 | 0.01 | 0.01 | 57 | 1013.4 |
| 20260505232721 | 45 | 285 | 1.0 | 5.0 | 0.00 | 0.01 | 0.01 | 59 | 1013.4 |
| 20260505232158 | 45 | 219 | 1.0 | 6.0 | 0.00 | 0.01 | 0.01 | 58 | 1013.3 |
| 20260505231715 | 46 | 245 | 1.0 | 6.0 | 0.00 | 0.01 | 0.01 | 58 | 1013.3 |
| 20260505231152 | 45 | 262 | 0.0 | 8.0 | 0.00 | 0.01 | 0.01 | 59 | 1013.3 |
| 20260505230649 | 45 | 296 | 1.0 | 8.0 | 0.00 | 0.01 | 0.01 | 58 | 1013.4 |
| 20260505230148 | 45 | 160 | 2.0 | 4.0 | 0.00 | 0.01 | 0.01 | 57 | 1013.4 |
| 20260505225707 | 45 | 241 | 2.0 | 6.0 | 0.00 | 0.01 | 0.01 | 60 | 1013.4 |
| 20260505225225 | 46 | 217 | 2.0 | 6.0 | 0.00 | 0.01 | 0.01 | 58 | 1013.5 |
| 20260505224701 | 46 | 264 | 1.0 | 4.0 | 0.00 | 0.01 | 0.01 | 57 | 1013.5 |
| 20260505224219 | 46 | 249 | 1.0 | 4.0 | 0.00 | 0.01 | 0.01 | 54 | 1013.5 |
| 20260505223700 | 47 | 269 | 0.0 | 4.0 | 0.00 | 0.01 | 0.01 | 57 | 1013.5 |
| 20260505223157 | 47 | 261 | 1.0 | 4.0 | 0.00 | 0.01 | 0.01 | 55 | 1013.6 |
| 20260505222655 | 47 | 33 | 1.0 | 5.0 | 0.00 | 0.01 | 0.01 | 56 | 1013.6 |
| 20260505222154 | 46 | 263 | 1.0 | 5.0 | 0.00 | 0.01 | 0.01 | 56 | 1013.7 |
| 20260505221651 | 47 | 254 | 1.0 | 4.0 | 0.00 | 0.01 | 0.01 | 56 | 1013.7 |
| 20260505221149 | 47 | 278 | 1.0 | 5.0 | 0.00 | 0.01 | 0.01 | 53 | 1013.7 |
| 20260505220647 | 46 | 249 | 0.0 | 5.0 | 0.00 | 0.01 | 0.01 | 57 | 1013.8 |
| 20260505220206 | 46 | 252 | 2.0 | 5.0 | 0.00 | 0.01 | 0.01 | 57 | 1013.8 |
| 20260505215704 | 46 | 146 | 1.0 | 6.0 | 0.00 | 0.01 | 0.01 | 54 | 1013.8 |
| 20260505215202 | 45 | 155 | 1.0 | 6.0 | 0.00 | 0.01 | 0.01 | 56 | 1013.8 |
| 20260505214700 | 45 | 252 | 1.0 | 8.0 | 0.00 | 0.01 | 0.01 | 57 | 1013.8 |
| 20260505214159 | 45 | 240 | 2.0 | 8.0 | 0.00 | 0.01 | 0.01 | 56 | 1013.8 |
| 20260505213717 | 46 | 252 | 1.0 | 8.0 | 0.00 | 0.01 | 0.01 | 54 | 1013.8 |
| 20260505213153 | 47 | 247 | 2.0 | 8.0 | 0.00 | 0.01 | 0.01 | 51 | 1013.8 |
| 20260505212650 | 46 | 263 | 1.0 | 7.0 | 0.00 | 0.01 | 0.01 | 53 | 1013.9 |
| 20260505212151 | 46 | 256 | 2.0 | 7.0 | 0.00 | 0.01 | 0.01 | 54 | 1013.9 |
| 20260505211648 | 46 | 248 | 2.0 | 5.0 | 0.00 | 0.01 | 0.01 | 53 | 1014.1 |
| 20260505211205 | 46 | 271 | 2.0 | 5.0 | 0.00 | 0.01 | 0.01 | 54 | 1014.1 |
| 20260505210703 | 47 | 257 | 1.0 | 7.0 | 0.00 | 0.01 | 0.01 | 52 | 1014.2 |
| 20260505210201 | 46 | 37 | 0.0 | 7.0 | 0.00 | 0.01 | 0.01 | 55 | 1014.1 |
| 20260505205701 | 46 | 271 | 2.0 | 6.0 | 0.00 | 0.01 | 0.01 | 54 | 1014.1 |
| 20260505205219 | 46 | 259 | 1.0 | 4.0 | 0.00 | 0.01 | 0.01 | 53 | 1014.0 |
| 20260505204655 | 46 | 269 | 1.0 | 5.0 | 0.00 | 0.01 | 0.01 | 53 | 1014.0 |
| 20260505204154 | 46 | 347 | 1.0 | 6.0 | 0.00 | 0.01 | 0.01 | 56 | 1013.9 |
| 20260505203653 | 46 | 290 | 2.0 | 6.0 | 0.00 | 0.01 | 0.01 | 56 | 1013.9 |
| 20260505203151 | 45 | 170 | 1.0 | 6.0 | 0.00 | 0.01 | 0.01 | 57 | 1013.9 |
| 20260505202648 | 46 | 174 | 2.0 | 6.0 | 0.00 | 0.01 | 0.01 | 55 | 1013.9 |
| 20260505202206 | 46 | 274 | 1.0 | 5.0 | 0.00 | 0.01 | 0.01 | 57 | 1013.8 |
| 20260505201704 | 46 | 249 | 1.0 | 5.0 | 0.00 | 0.01 | 0.01 | 56 | 1013.8 |
| 20260505201201 | 46 | 270 | 1.0 | 6.0 | 0.00 | 0.01 | 0.01 | 59 | 1013.8 |
| 20260505200659 | 46 | 221 | 2.0 | 6.0 | 0.00 | 0.01 | 0.01 | 59 | 1013.8 |
| 20260505200200 | 46 | 255 | 2.0 | 6.0 | 0.00 | 0.01 | 0.01 | 60 | 1013.8 |
| 20260505195700 | 46 | 225 | 3.0 | 6.0 | 0.00 | 0.01 | 0.01 | 58 | 1013.8 |
| 20260505195157 | 46 | 222 | 2.0 | 6.0 | 0.00 | 0.01 | 0.01 | 57 | 1013.8 |
| 20260505194655 | 48 | 277 | 1.0 | 3.0 | 0.00 | 0.01 | 0.01 | 57 | 1013.8 |
| 20260505194153 | 47 | 250 | 0.0 | 5.0 | 0.00 | 0.01 | 0.01 | 59 | 1013.8 |
| 20260505193651 | 46 | 290 | 0.0 | 5.0 | 0.00 | 0.01 | 0.01 | 59 | 1013.8 |
| 20260505193208 | 47 | 250 | 1.0 | 5.0 | 0.00 | 0.01 | 0.01 | 59 | 1013.8 |
| 20260505192726 | 48 | 281 | 1.0 | 4.0 | 0.00 | 0.01 | 0.01 | 58 | 1013.8 |
| 20260505192202 | 48 | 224 | 2.0 | 7.0 | 0.00 | 0.01 | 0.01 | 59 | 1013.8 |
| 20260505191659 | 47 | 192 | 1.0 | 7.0 | 0.00 | 0.01 | 0.01 | 60 | 1013.7 |
| 20260505191155 | 47 | 262 | 0.0 | 3.0 | 0.00 | 0.01 | 0.01 | 61 | 1013.8 |
| 20260505190653 | 47 | 92 | 1.0 | 5.0 | 0.00 | 0.01 | 0.01 | 63 | 1013.7 |
| 20260505190150 | 47 | 259 | 2.0 | 5.0 | 0.00 | 0.01 | 0.01 | 62 | 1013.7 |
| 20260505185707 | 46 | 266 | 1.0 | 4.0 | 0.00 | 0.01 | 0.01 | 62 | 1013.6 |
| 20260505185205 | 45 | 288 | 0.0 | 5.0 | 0.00 | 0.01 | 0.01 | 69 | 1013.7 |